Weather History for Palmdale, CA

Change the Weather History Date:

Wednesday, June 18, 2014

  Actual Average Record
Temperature  
Mean Temperature 72 °F 76 °F  
Max Temperature 89 °F 92 °F 105 °F (1985)
Min Temperature 54 °F 59 °F 43 °F (1939)
Degree Days  
Heating Degree Days 0 0  
Month to date heating degree days 0 6  
Since 1 June heating degree days 0 6  
Since 1 July heating degree days 2331 2924  
Cooling Degree Days 7 11  
Month to date cooling degree days 215 161  
Year to date cooling degree days 434 331  
Since 1 June cooling degree days 215 161  
Growing Degree Days 21 (Base 50)    
Moisture  
Dew Point 33 °F    
Average Humidity 29    
Maximum Humidity 51    
Minimum Humidity 7    
Precipitation  
Precipitation 0.00 in 0.00 in 0.00 in (2014)
Month to date precipitation 0.00 0.08  
Year to date precipitation 3.05 5.31  
Since 1 July precipitation 5.12 8.29  
Snow  
Snow 0.00 in - 0.00 in (1973)
Month to date snowfall 0.0  
Since 1 June snowfall 0.0  
Since 1 July snowfall 0.0  
Snow Depth 0.00 in    
Sea Level Pressure  
Sea Level Pressure 29.88 in    
Wind  
Wind Speed 9 mph (SW)    
Max Wind Speed 20 mph    
Max Gust Speed 24 mph    
Visibility 10 miles    
Events      
T = Trace of Precipitation, MM = Missing Value Source: NWS Daily Summary

Daily Weather History Graph

Daily Weather History Graph

Search for Another Location

Airport:

Trip Planner

Search our weather history database for the weather conditions in past years. The results will help you decide how hot, cold, wet, or windy it might be!

Date:

Astronomy

Jun. 18, 2014 Rise Set
Actual Time 5:39 AM PDT 8:07 PM PDT
Civil Twilight 5:09 AM PDT 8:37 PM PDT
Nautical Twilight 4:33 AM PDT 9:13 PM PDT
Astronomical Twilight 3:53 AM PDT 9:54 PM PDT
Moon No Moon Rise 11:53 AM PDT (6/18)
Length of Visible Light 15h 27m
Length of Day
14h 28m
Waning Gibbous, 61% of the Moon is Illuminated
Jun 18
Waning Gibbous
Jun 19
Last Quarter
Jun 27
New
Jul 5
First Quarter
Jul 12
Full

Hourly Weather History & Observations

Time (PDT) Temp. Dew Point Humidity Pressure Visibility Wind Dir Wind Speed Gust Speed Precip Events Conditions
12:53 AM 63.0 °F 39.9 °F 43% 29.82 in 10.0 mi WSW 16.1 mph - N/A   Clear
1:53 AM 60.1 °F 39.9 °F 47% 29.84 in 10.0 mi SSW 10.4 mph - N/A   Clear
2:53 AM 61.0 °F 36.0 °F 39% 29.83 in 10.0 mi SW 10.4 mph - N/A   Clear
3:53 AM 57.0 °F 37.0 °F 47% 29.84 in 10.0 mi SW 8.1 mph - N/A   Clear
4:53 AM 55.9 °F 37.0 °F 49% 29.85 in 10.0 mi SSW 5.8 mph - N/A   Clear
5:53 AM 55.0 °F 37.0 °F 51% 29.88 in 10.0 mi South 5.8 mph - N/A   Clear
6:53 AM 59.0 °F 36.0 °F 42% 29.89 in 10.0 mi South 5.8 mph - N/A   Clear
7:53 AM 66.0 °F 32.0 °F 28% 29.91 in 10.0 mi Calm Calm - N/A   Clear
8:53 AM 70.0 °F 30.9 °F 24% 29.92 in 10.0 mi NE 3.5 mph - N/A   Clear
9:53 AM 73.9 °F 30.0 °F 20% 29.92 in 10.0 mi NE 10.4 mph - N/A   Clear
10:53 AM 78.1 °F 25.0 °F 14% 29.91 in 10.0 mi NE 11.5 mph 20.7 mph N/A   Clear
11:53 AM 80.1 °F 24.1 °F 13% 29.90 in 10.0 mi NNE 9.2 mph 17.3 mph N/A   Clear
12:53 PM 82.0 °F 21.0 °F 10% 29.89 in 10.0 mi Variable 5.8 mph - N/A   Clear
1:53 PM 84.0 °F 19.9 °F 9% 29.88 in 10.0 mi North 12.7 mph 20.7 mph N/A   Clear
2:53 PM 84.9 °F 19.9 °F 9% 29.87 in 10.0 mi NNW 5.8 mph - N/A   Clear
3:53 PM 86.0 °F 19.0 °F 8% 29.86 in 10.0 mi Variable 3.5 mph - N/A   Clear
4:53 PM 87.1 °F 17.1 °F 8% 29.84 in 10.0 mi NE 6.9 mph - N/A   Clear
5:53 PM 84.9 °F 39.9 °F 20% 29.84 in 10.0 mi WSW 15.0 mph 23.0 mph N/A   Clear
6:53 PM 82.0 °F 39.9 °F 22% 29.85 in 10.0 mi WSW 15.0 mph - N/A   Clear
7:53 PM 75.0 °F 45.0 °F 34% 29.88 in 10.0 mi SW 15.0 mph - N/A   Clear
8:53 PM 73.0 °F 45.0 °F 37% 29.90 in 10.0 mi SW 13.8 mph - N/A   Clear
9:53 PM 70.0 °F 46.0 °F 42% 29.91 in 10.0 mi SSW 13.8 mph - N/A   Clear
10:53 PM 68.0 °F 42.1 °F 39% 29.91 in 10.0 mi SSW 9.2 mph - N/A   Clear
11:53 PM 66.2 °F 39.2 °F 37% 29.98 in 10.0 mi SSW 9.2 mph - N/A   Clear